owner,sensor,date,latitude,longitude,vertical_datum,wind_speed,wind_to_direction,wind_speed_of_gust,qcFlag 
TABS,ioos:station:wmo:42045:1,2007-03-09T00:00:00Z,26.2168,-96.4998,4.0,99.0,-9999.0,99.0,'11144222,99999999,11144222' 
TABS,ioos:station:wmo:42045:1,2007-03-09T00:30:00Z,26.2168,-96.4998,4.0,99.0,-9999.0,99.0,'11144222,99999999,11144222' 
TABS,ioos:station:wmo:42045:1,2007-03-09T01:00:00Z,26.2168,-96.4998,4.0,99.0,-9999.0,99.0,'11144222,99999999,11144222' 
TABS,ioos:station:wmo:42045:1,2007-03-09T01:30:00Z,26.2168,-96.4998,4.0,99.0,-9999.0,99.0,'11144222,99999999,11144222' 
TABS,ioos:station:wmo:42045:1,2007-03-09T02:00:00Z,26.2168,-96.4998,4.0,99.0,-9999.0,99.0,'11144222,99999999,11144222' 
TABS,ioos:station:wmo:42045:1,2007-03-09T02:30:00Z,26.2168,-96.4998,4.0,99.0,-9999.0,99.0,'11144222,99999999,11144222' 
TABS,ioos:station:wmo:42045:1,2007-03-09T03:00:00Z,26.2168,-96.4998,4.0,99.0,-9999.0,99.0,'11144222,99999999,11144222' 
TABS,ioos:station:wmo:42045:1,2007-03-09T03:30:00Z,26.2168,-96.4998,4.0,99.0,-9999.0,99.0,'11144222,99999999,11144222' 
TABS,ioos:station:wmo:42045:1,2007-03-09T04:00:00Z,26.2168,-96.4998,4.0,99.0,-9999.0,99.0,'11144222,99999999,11144222' 
TABS,ioos:station:wmo:42045:1,2007-03-09T04:30:00Z,26.2168,-96.4998,4.0,6.556599729,132.0330028,7.98,'11111222,11111222,11111222' 
TABS,ioos:station:wmo:42045:1,2007-03-09T05:00:00Z,26.2168,-96.4998,4.0,5.973784395,128.2706842,7.42,'11111222,11111222,11111222' 
TABS,ioos:station:wmo:42045:1,2007-03-09T05:30:00Z,26.2168,-96.4998,4.0,7.033157186,130.097955,8.85,'11111222,11111222,11111222' 
TABS,ioos:station:wmo:42045:1,2007-03-09T06:00:00Z,26.2168,-96.4998,4.0,6.759940828,135.0003157,8.15,'11111222,11111222,11111222' 
TABS,ioos:station:wmo:42045:1,2007-03-09T06:30:00Z,26.2168,-96.4998,4.0,5.911480356,134.7261759,7.66,'11111222,11111222,11111222' 
TABS,ioos:station:wmo:42045:1,2007-03-09T07:00:00Z,26.2168,-96.4998,4.0,5.543879508,134.5618372,7.03,'11111222,11111222,11111222' 
TABS,ioos:station:wmo:42045:1,2007-03-09T07:30:00Z,26.2168,-96.4998,4.0,5.176504612,134.217637,6.46,'11111222,11111222,11111222' 
TABS,ioos:station:wmo:42045:1,2007-03-09T08:00:00Z,26.2168,-96.4998,4.0,5.690975312,128.7230319,6.9,'11111222,11111222,11111222' 
TABS,ioos:station:wmo:42045:1,2007-03-09T08:30:00Z,26.2168,-96.4998,4.0,6.503575939,132.6947721,7.89,'11111222,11111222,11111222' 
TABS,ioos:station:wmo:42045:1,2007-03-09T09:00:00Z,26.2168,-96.4998,4.0,6.382115637,132.9685063,7.75,'11111222,11111222,11111222' 
TABS,ioos:station:wmo:42045:1,2007-03-09T09:30:00Z,26.2168,-96.4998,4.0,6.161046989,133.4876938,7.2,'11111222,11111222,11111222' 
TABS,ioos:station:wmo:42045:1,2007-03-09T10:00:00Z,26.2168,-96.4998,4.0,5.898788011,131.9081184,7.07,'11111222,11111222,11111222' 
TABS,ioos:station:wmo:42045:1,2007-03-09T10:30:00Z,26.2168,-96.4998,4.0,5.209731279,131.0310615,6.3,'11111222,11111222,11111222' 
TABS,ioos:station:wmo:42045:1,2007-03-09T11:00:00Z,26.2168,-96.4998,4.0,4.676804465,120.7329907,5.88,'11111222,11111222,11111222' 
TABS,ioos:station:wmo:42045:1,2007-03-09T11:30:00Z,26.2168,-96.4998,4.0,5.484058716,130.3409816,6.53,'11111222,11111222,11111222' 
TABS,ioos:station:wmo:42045:1,2007-03-09T12:00:00Z,26.2168,-96.4998,4.0,4.923108774,136.4817694,5.81,'11111222,11111222,11111222' 
TABS,ioos:station:wmo:42045:1,2007-03-09T12:30:00Z,26.2168,-96.4998,4.0,4.577870684,132.9643881,6.04,'11111222,11111222,11111222' 
TABS,ioos:station:wmo:42045:1,2007-03-09T13:00:00Z,26.2168,-96.4998,4.0,4.531942189,123.9358607,5.91,'11111222,11111222,11111222' 
TABS,ioos:station:wmo:42045:1,2007-03-09T13:30:00Z,26.2168,-96.4998,4.0,3.91643971,131.7918021,5.0,'11111222,11111222,11111222' 
TABS,ioos:station:wmo:42045:1,2007-03-09T14:00:00Z,26.2168,-96.4998,4.0,4.006706877,130.648152,5.08,'11111222,11111222,11111222' 
TABS,ioos:station:wmo:42045:1,2007-03-09T14:30:00Z,26.2168,-96.4998,4.0,3.930559757,131.8033403,4.63,'11111222,11111222,11111222' 
TABS,ioos:station:wmo:42045:1,2007-03-09T15:00:00Z,26.2168,-96.4998,4.0,3.967089613,131.5259164,5.08,'11111222,11111222,11111222' 
TABS,ioos:station:wmo:42045:1,2007-03-09T15:30:00Z,26.2168,-96.4998,4.0,3.503426894,130.6016206,4.4,'11111222,11111222,11111222' 
TABS,ioos:station:wmo:42045:1,2007-03-09T16:00:00Z,26.2168,-96.4998,4.0,3.764425587,121.1990289,4.55,'11111222,11111222,11111222' 
TABS,ioos:station:wmo:42045:1,2007-03-09T16:30:00Z,26.2168,-96.4998,4.0,3.643144246,136.6686492,4.41,'11111222,11111222,11111222' 
TABS,ioos:station:wmo:42045:1,2007-03-09T17:00:00Z,26.2168,-96.4998,4.0,3.693033983,147.945566,4.63,'11111222,11111222,11111222' 
TABS,ioos:station:wmo:42045:1,2007-03-09T17:30:00Z,26.2168,-96.4998,4.0,4.129116128,144.4626158,5.19,'11111222,11111222,11111222' 
TABS,ioos:station:wmo:42045:1,2007-03-09T18:00:00Z,26.2168,-96.4998,4.0,4.375591389,144.6757229,5.58,'11111222,11111222,11111222' 
TABS,ioos:station:wmo:42045:1,2007-03-09T18:30:00Z,26.2168,-96.4998,4.0,4.142233697,143.7390213,5.14,'11111222,11111222,11111222' 
TABS,ioos:station:wmo:42045:1,2007-03-09T19:00:00Z,26.2168,-96.4998,4.0,4.170851232,149.1307625,5.16,'11111222,11111222,11111222' 
TABS,ioos:station:wmo:42045:1,2007-03-09T19:30:00Z,26.2168,-96.4998,4.0,4.506994564,138.7785046,5.24,'11111222,11111222,11111222' 
TABS,ioos:station:wmo:42045:1,2007-03-09T20:00:00Z,26.2168,-96.4998,4.0,3.98282563,136.7298541,4.94,'11111222,11111222,11111222' 
TABS,ioos:station:wmo:42045:1,2007-03-09T20:30:00Z,26.2168,-96.4998,4.0,3.68089663,145.4035841,4.36,'11111222,11111222,11111222' 
TABS,ioos:station:wmo:42045:1,2007-03-09T21:00:00Z,26.2168,-96.4998,4.0,5.268519716,142.3256156,6.14,'11111222,11111222,11111222' 
TABS,ioos:station:wmo:42045:1,2007-03-09T21:30:00Z,26.2168,-96.4998,4.0,5.612022808,142.9670477,6.65,'11111222,11111222,11111222' 
TABS,ioos:station:wmo:42045:1,2007-03-09T22:00:00Z,26.2168,-96.4998,4.0,4.674237906,152.3387879,5.63,'11111222,11111222,11111222' 
TABS,ioos:station:wmo:42045:1,2007-03-09T22:30:00Z,26.2168,-96.4998,4.0,3.281249762,146.9398189,3.87,'11111222,11111222,11111222' 
TABS,ioos:station:wmo:42045:1,2007-03-09T23:00:00Z,26.2168,-96.4998,4.0,3.048967038,139.2563325,3.67,'11111222,11111222,11111222' 
TABS,ioos:station:wmo:42045:1,2007-03-09T23:30:00Z,26.2168,-96.4998,4.0,2.874804341,144.4857842,3.35,'11111222,11111222,11111222' 
TABS,ioos:station:wmo:42045:1,2007-03-10T00:00:00Z,26.2168,-96.4998,4.0,3.507249635,135.0003157,4.13,'11111222,11111222,11111222' 
TABS,ioos:station:wmo:42045:1,2007-03-10T00:30:00Z,26.2168,-96.4998,4.0,3.712856044,135.9824306,4.53,'11111222,11111222,11111222' 
TABS,ioos:station:wmo:42045:1,2007-03-10T01:00:00Z,26.2168,-96.4998,4.0,3.361086134,140.6749133,4.15,'11111222,11111222,11111222' 
TABS,ioos:station:wmo:42045:1,2007-03-10T01:30:00Z,26.2168,-96.4998,4.0,3.690433579,141.0495312,4.39,'11111222,11111222,11111222' 
TABS,ioos:station:wmo:42045:1,2007-03-10T02:00:00Z,26.2168,-96.4998,4.0,4.158232798,142.5241185,4.8,'11111222,11111222,11111222' 
TABS,ioos:station:wmo:42045:1,2007-03-10T02:30:00Z,26.2168,-96.4998,4.0,3.896934693,136.143997,4.61,'11111222,11111222,11111222' 
TABS,ioos:station:wmo:42045:1,2007-03-10T03:00:00Z,26.2168,-96.4998,4.0,3.53556219,134.7711343,4.28,'11111222,11111222,11111222' 
TABS,ioos:station:wmo:42045:1,2007-03-10T03:30:00Z,26.2168,-96.4998,4.0,3.208067954,138.1591227,3.73,'11111222,11111222,11111222' 
TABS,ioos:station:wmo:42045:1,2007-03-10T04:00:00Z,26.2168,-96.4998,4.0,3.976443134,138.9770374,4.55,'11111222,11111222,11111222' 
TABS,ioos:station:wmo:42045:1,2007-03-10T04:30:00Z,26.2168,-96.4998,4.0,4.500155553,148.8181751,5.33,'11111222,11111222,11111222' 
TABS,ioos:station:wmo:42045:1,2007-03-10T05:00:00Z,26.2168,-96.4998,4.0,4.190871031,145.8931198,4.99,'11111222,11111222,11111222' 
TABS,ioos:station:wmo:42045:1,2007-03-10T05:30:00Z,26.2168,-96.4998,4.0,3.901281841,144.5991963,4.66,'11111222,11111222,11111222' 
TABS,ioos:station:wmo:42045:1,2007-03-10T06:00:00Z,26.2168,-96.4998,4.0,3.412477106,137.8508567,4.12,'11111222,11111222,11111222' 
TABS,ioos:station:wmo:42045:1,2007-03-10T06:30:00Z,26.2168,-96.4998,4.0,3.297347419,130.6958568,4.09,'11111222,11111222,11111222' 
TABS,ioos:station:wmo:42045:1,2007-03-10T07:00:00Z,26.2168,-96.4998,4.0,3.169858041,132.954912,3.81,'11111222,11111222,11111222' 
TABS,ioos:station:wmo:42045:1,2007-03-10T07:30:00Z,26.2168,-96.4998,4.0,3.220139749,137.3914919,3.89,'11111222,11111222,11111222' 
TABS,ioos:station:wmo:42045:1,2007-03-10T08:00:00Z,26.2168,-96.4998,4.0,3.017051541,138.2248308,3.59,'11111222,11111222,11111222' 
TABS,ioos:station:wmo:42045:1,2007-03-10T08:30:00Z,26.2168,-96.4998,4.0,2.609233604,135.1555881,3.25,'11111222,11111222,11111222' 
TABS,ioos:station:wmo:42045:1,2007-03-10T09:00:00Z,26.2168,-96.4998,4.0,2.418966722,133.660311,2.96,'11111222,11111222,11111222' 
TABS,ioos:station:wmo:42045:1,2007-03-10T09:30:00Z,26.2168,-96.4998,4.0,3.177750777,132.577224,3.88,'11111222,11111222,11111222' 
TABS,ioos:station:wmo:42045:1,2007-03-10T10:00:00Z,26.2168,-96.4998,4.0,3.104979871,125.4307607,3.93,'11111222,11111222,11111222' 
TABS,ioos:station:wmo:42045:1,2007-03-10T10:30:00Z,26.2168,-96.4998,4.0,3.325432303,123.5948374,4.19,'11111222,11111222,11111222' 
TABS,ioos:station:wmo:42045:1,2007-03-10T11:00:00Z,26.2168,-96.4998,4.0,3.292612944,122.7251152,4.38,'11111222,11111222,11111222' 
TABS,ioos:station:wmo:42045:1,2007-03-10T11:30:00Z,26.2168,-96.4998,4.0,2.777948884,131.2056523,3.54,'11111222,11111222,11111222' 
TABS,ioos:station:wmo:42045:1,2007-03-10T12:00:00Z,26.2168,-96.4998,4.0,2.784762108,124.3181257,3.42,'11111222,11111222,11111222' 
TABS,ioos:station:wmo:42045:1,2007-03-10T12:30:00Z,26.2168,-96.4998,4.0,2.799464234,119.7706184,3.55,'11111222,11111222,11111222' 
TABS,ioos:station:wmo:42045:1,2007-03-10T13:00:00Z,26.2168,-96.4998,4.0,3.139633737,123.4373387,4.12,'11111222,11111222,11111222' 
TABS,ioos:station:wmo:42045:1,2007-03-10T13:30:00Z,26.2168,-96.4998,4.0,4.192004294,126.9522394,5.55,'11111222,11111222,11111222' 
TABS,ioos:station:wmo:42045:1,2007-03-10T14:00:00Z,26.2168,-96.4998,4.0,4.264106002,125.0694139,5.86,'11111222,11111222,11111222' 
TABS,ioos:station:wmo:42045:1,2007-03-10T14:30:00Z,26.2168,-96.4998,4.0,4.031128874,119.7452327,5.18,'11111222,11111222,11111222' 
TABS,ioos:station:wmo:42045:1,2007-03-10T15:00:00Z,26.2168,-96.4998,4.0,3.647259245,118.6735004,4.56,'11111222,11111222,11111222' 
TABS,ioos:station:wmo:42045:1,2007-03-10T15:30:00Z,26.2168,-96.4998,4.0,3.056010471,127.0202206,3.81,'11111222,11111222,11111222' 
TABS,ioos:station:wmo:42045:1,2007-03-10T16:00:00Z,26.2168,-96.4998,4.0,3.470518693,122.4082272,4.26,'11111222,11111222,11111222' 
TABS,ioos:station:wmo:42045:1,2007-03-10T16:30:00Z,26.2168,-96.4998,4.0,3.104851043,136.1747772,3.89,'11111222,11111222,11111222' 
TABS,ioos:station:wmo:42045:1,2007-03-10T17:00:00Z,26.2168,-96.4998,4.0,2.68931218,128.6601388,3.32,'11111222,11111222,11111222' 
TABS,ioos:station:wmo:42045:1,2007-03-10T17:30:00Z,26.2168,-96.4998,4.0,2.441823089,137.4898628,3.07,'11111222,11111222,11111222' 
TABS,ioos:station:wmo:42045:1,2007-03-10T18:00:00Z,26.2168,-96.4998,4.0,2.176074447,127.3441745,2.69,'11111222,11111222,11111222' 
TABS,ioos:station:wmo:42045:1,2007-03-10T18:30:00Z,26.2168,-96.4998,4.0,3.276492027,122.2837713,4.31,'11111222,11111222,11111222' 
TABS,ioos:station:wmo:42045:1,2007-03-10T19:00:00Z,26.2168,-96.4998,4.0,3.515010669,122.334018,4.45,'11111222,11111222,11111222' 
TABS,ioos:station:wmo:42045:1,2007-03-10T19:30:00Z,26.2168,-96.4998,4.0,3.565851932,121.818378,4.31,'11111222,11111222,11111222' 
TABS,ioos:station:wmo:42045:1,2007-03-10T20:00:00Z,26.2168,-96.4998,4.0,3.606618915,121.0458391,4.47,'11111222,11111222,11111222' 
TABS,ioos:station:wmo:42045:1,2007-03-10T20:30:00Z,26.2168,-96.4998,4.0,4.00824151,117.9719401,4.76,'11111222,11111222,11111222' 
TABS,ioos:station:wmo:42045:1,2007-03-10T21:00:00Z,26.2168,-96.4998,4.0,4.22234532,121.2433667,4.98,'11111222,11111222,11111222' 
TABS,ioos:station:wmo:42045:1,2007-03-10T21:30:00Z,26.2168,-96.4998,4.0,5.110313102,122.2909573,5.96,'11111222,11111222,11111222' 
TABS,ioos:station:wmo:42045:1,2007-03-10T22:00:00Z,26.2168,-96.4998,4.0,4.958517924,118.6845888,5.88,'11111222,11111222,11111222' 
TABS,ioos:station:wmo:42045:1,2007-03-10T22:30:00Z,26.2168,-96.4998,4.0,4.985669464,118.7759039,6.25,'11111222,11111222,11111222' 
TABS,ioos:station:wmo:42045:1,2007-03-10T23:00:00Z,26.2168,-96.4998,4.0,4.736000422,116.457203,5.48,'11111222,11111222,11111222' 
TABS,ioos:station:wmo:42045:1,2007-03-10T23:30:00Z,26.2168,-96.4998,4.0,5.183367631,114.1424283,6.14,'11111222,11111222,11111222' 
TABS,ioos:station:wmo:42045:1,2007-03-11T00:00:00Z,26.2168,-96.4998,4.0,5.491812087,116.3787799,6.68,'11111222,11111222,11111222' 
TABS,ioos:station:wmo:42045:1,2007-03-11T00:30:00Z,26.2168,-96.4998,4.0,5.339747185,116.7093686,6.63,'11111222,11111222,11111222' 
TABS,ioos:station:wmo:42045:1,2007-03-11T01:00:00Z,26.2168,-96.4998,4.0,5.794911561,118.5555776,7.1,'11111222,11111222,11111222' 
TABS,ioos:station:wmo:42045:1,2007-03-11T01:30:00Z,26.2168,-96.4998,4.0,6.088949006,122.5942258,7.23,'11111222,11111222,11111222' 
TABS,ioos:station:wmo:42045:1,2007-03-11T02:00:00Z,26.2168,-96.4998,4.0,5.596472103,118.0306865,6.73,'11111222,11111222,11111222' 
TABS,ioos:station:wmo:42045:1,2007-03-11T02:30:00Z,26.2168,-96.4998,4.0,6.069703452,121.5954811,7.61,'11111222,11111222,11111222' 
TABS,ioos:station:wmo:42045:1,2007-03-11T03:00:00Z,26.2168,-96.4998,4.0,5.819501697,117.7543111,7.16,'11111222,11111222,11111222' 
TABS,ioos:station:wmo:42045:1,2007-03-11T03:30:00Z,26.2168,-96.4998,4.0,6.399015549,119.4897973,7.57,'11111222,11111222,11111222' 
TABS,ioos:station:wmo:42045:1,2007-03-11T04:00:00Z,26.2168,-96.4998,4.0,6.515189944,124.178228,7.9,'11111222,11111222,11111222' 
TABS,ioos:station:wmo:42045:1,2007-03-11T04:30:00Z,26.2168,-96.4998,4.0,6.640783086,124.6954933,8.61,'11111222,11111222,11111222' 
TABS,ioos:station:wmo:42045:1,2007-03-11T05:00:00Z,26.2168,-96.4998,4.0,6.938969664,125.9123661,8.32,'11111222,11111222,11111222' 
TABS,ioos:station:wmo:42045:1,2007-03-11T05:30:00Z,26.2168,-96.4998,4.0,6.715094936,123.0277882,8.4,'11111222,11111222,11111222' 
TABS,ioos:station:wmo:42045:1,2007-03-11T06:00:00Z,26.2168,-96.4998,4.0,6.14801594,127.0007037,7.3,'11111222,11111222,11111222' 
TABS,ioos:station:wmo:42045:1,2007-03-11T06:30:00Z,26.2168,-96.4998,4.0,6.594012436,124.8713474,8.1,'11111222,11111222,11111222' 
TABS,ioos:station:wmo:42045:1,2007-03-11T07:00:00Z,26.2168,-96.4998,4.0,6.500769185,125.9888304,7.64,'11111222,11111222,11111222' 
TABS,ioos:station:wmo:42045:1,2007-03-11T07:30:00Z,26.2168,-96.4998,4.0,6.879047899,122.835659,8.73,'11111222,11111222,11111222' 
TABS,ioos:station:wmo:42045:1,2007-03-11T08:00:00Z,26.2168,-96.4998,4.0,7.294141485,121.4894913,9.38,'11111222,11111222,11111222' 
TABS,ioos:station:wmo:42045:1,2007-03-11T08:30:00Z,26.2168,-96.4998,4.0,7.193364998,122.4532105,8.89,'11111222,11111222,11111222' 
TABS,ioos:station:wmo:42045:1,2007-03-11T09:00:00Z,26.2168,-96.4998,4.0,7.194004448,126.8065174,8.65,'11111222,11111222,11111222' 
TABS,ioos:station:wmo:42045:1,2007-03-11T09:30:00Z,26.2168,-96.4998,4.0,6.368555566,129.840456,7.66,'11111222,11111222,11111222' 
TABS,ioos:station:wmo:42045:1,2007-03-11T10:00:00Z,26.2168,-96.4998,4.0,6.584010936,126.9746593,8.2,'11111222,11111222,11111222' 
TABS,ioos:station:wmo:42045:1,2007-03-11T10:30:00Z,26.2168,-96.4998,4.0,6.994240488,126.3951006,8.44,'11111222,11111222,11111222' 
TABS,ioos:station:wmo:42045:1,2007-03-11T11:00:00Z,26.2168,-96.4998,4.0,6.979749279,135.7549259,8.5,'11111222,11111222,11111222' 
TABS,ioos:station:wmo:42045:1,2007-03-11T11:30:00Z,26.2168,-96.4998,4.0,6.887742736,135.7061812,8.73,'11111222,11111222,11111222' 
TABS,ioos:station:wmo:42045:1,2007-03-11T12:00:00Z,26.2168,-96.4998,4.0,6.779985251,137.3912294,8.2,'11111222,11111222,11111222' 
TABS,ioos:station:wmo:42045:1,2007-03-11T12:30:00Z,26.2168,-96.4998,4.0,6.758254212,138.4794164,8.6,'11111222,11111222,11111222' 
TABS,ioos:station:wmo:42045:1,2007-03-11T13:00:00Z,26.2168,-96.4998,4.0,6.34703868,137.1072321,7.62,'11111222,11111222,11111222' 
TABS,ioos:station:wmo:42045:1,2007-03-11T13:30:00Z,26.2168,-96.4998,4.0,6.608252416,136.9625681,8.11,'11111222,11111222,11111222' 
TABS,ioos:station:wmo:42045:1,2007-03-11T14:00:00Z,26.2168,-96.4998,4.0,5.82671434,135.4175096,6.88,'11111222,11111222,11111222' 
TABS,ioos:station:wmo:42045:1,2007-03-11T14:30:00Z,26.2168,-96.4998,4.0,5.88600034,136.7902221,7.14,'11111222,11111222,11111222' 
TABS,ioos:station:wmo:42045:1,2007-03-11T15:00:00Z,26.2168,-96.4998,4.0,6.258218596,135.5829632,7.64,'11111222,11111222,11111222' 
TABS,ioos:station:wmo:42045:1,2007-03-11T15:30:00Z,26.2168,-96.4998,4.0,5.982783633,137.9134393,7.34,'11111222,11111222,11111222' 
TABS,ioos:station:wmo:42045:1,2007-03-11T16:00:00Z,26.2168,-96.4998,4.0,5.345549551,140.0849445,6.79,'11111222,11111222,11111222' 
TABS,ioos:station:wmo:42045:1,2007-03-11T16:30:00Z,26.2168,-96.4998,4.0,5.727172077,139.8873141,7.11,'11111222,11111222,11111222' 
TABS,ioos:station:wmo:42045:1,2007-03-11T17:00:00Z,26.2168,-96.4998,4.0,5.286000378,143.1520773,6.49,'11111222,11111222,11111222' 
TABS,ioos:station:wmo:42045:1,2007-03-11T17:30:00Z,26.2168,-96.4998,4.0,5.043659386,139.5838348,6.47,'11111222,11111222,11111222' 
TABS,ioos:station:wmo:42045:1,2007-03-11T18:00:00Z,26.2168,-96.4998,4.0,5.523051693,134.1933881,7.08,'11111222,11111222,11111222' 
TABS,ioos:station:wmo:42045:1,2007-03-11T18:30:00Z,26.2168,-96.4998,4.0,5.078287113,136.2768876,6.54,'11111222,11111222,11111222' 
TABS,ioos:station:wmo:42045:1,2007-03-11T19:00:00Z,26.2168,-96.4998,4.0,5.3364595,128.6098353,7.0,'11111222,11111222,11111222' 
TABS,ioos:station:wmo:42045:1,2007-03-11T19:30:00Z,26.2168,-96.4998,4.0,5.747425511,128.1463601,6.96,'11111222,11111222,11111222' 
TABS,ioos:station:wmo:42045:1,2007-03-11T20:00:00Z,26.2168,-96.4998,4.0,5.236535114,123.2352102,6.21,'11111222,11111222,11111222' 
TABS,ioos:station:wmo:42045:1,2007-03-11T20:30:00Z,26.2168,-96.4998,4.0,5.49542537,124.847156,6.79,'11111222,11111222,11111222' 
TABS,ioos:station:wmo:42045:1,2007-03-11T21:00:00Z,26.2168,-96.4998,4.0,5.124656086,127.7870633,6.87,'11111222,11111222,11111222' 
TABS,ioos:station:wmo:42045:1,2007-03-11T21:30:00Z,26.2168,-96.4998,4.0,5.308182363,127.3451665,6.49,'11111222,11111222,11111222' 
TABS,ioos:station:wmo:42045:1,2007-03-11T22:00:00Z,26.2168,-96.4998,4.0,4.831252426,125.5655881,6.1,'11111222,11111222,11111222' 
TABS,ioos:station:wmo:42045:1,2007-03-11T22:30:00Z,26.2168,-96.4998,4.0,5.490145718,138.4707689,6.55,'11111222,11111222,11111222' 
TABS,ioos:station:wmo:42045:1,2007-03-11T23:00:00Z,26.2168,-96.4998,4.0,4.557477372,132.688393,5.52,'11111222,11111222,11111222' 
TABS,ioos:station:wmo:42045:1,2007-03-11T23:30:00Z,26.2168,-96.4998,4.0,5.376290543,129.6421585,7.39,'11111222,11111222,11111222' 
TABS,ioos:station:wmo:42045:1,2007-03-12T00:00:00Z,26.2168,-96.4998,4.0,6.738315813,118.3529409,8.45,'11111222,11111222,11111222' 
TABS,ioos:station:wmo:42045:1,2007-03-12T00:30:00Z,26.2168,-96.4998,4.0,6.22873984,125.9871324,8.0,'11111222,11111222,11111222' 
TABS,ioos:station:wmo:42045:1,2007-03-12T01:00:00Z,26.2168,-96.4998,4.0,4.146142786,117.4306506,5.59,'11111222,11111222,11111222' 
TABS,ioos:station:wmo:42045:1,2007-03-12T01:30:00Z,26.2168,-96.4998,4.0,3.009867107,104.0366316,4.12,'11111222,11111222,11111222' 
TABS,ioos:station:wmo:42045:1,2007-03-12T02:00:00Z,26.2168,-96.4998,4.0,3.442687903,100.0372999,4.49,'11111222,11111222,11111222' 
TABS,ioos:station:wmo:42045:1,2007-03-12T02:30:00Z,26.2168,-96.4998,4.0,3.95701908,119.0268296,5.01,'11111222,11111222,11111222' 
TABS,ioos:station:wmo:42045:1,2007-03-12T03:00:00Z,26.2168,-96.4998,4.0,5.45242148,115.5314745,7.04,'11111222,11111222,11111222' 
TABS,ioos:station:wmo:42045:1,2007-03-12T03:30:00Z,26.2168,-96.4998,4.0,5.456418239,115.8609908,6.88,'11111222,11111222,11111222' 
TABS,ioos:station:wmo:42045:1,2007-03-12T04:00:00Z,26.2168,-96.4998,4.0,4.722393461,119.0078196,6.06,'11111222,11111222,11111222' 
TABS,ioos:station:wmo:42045:1,2007-03-12T04:30:00Z,26.2168,-96.4998,4.0,4.570700165,117.0699574,5.66,'11111222,11111222,11111222' 
TABS,ioos:station:wmo:42045:1,2007-03-12T05:00:00Z,26.2168,-96.4998,4.0,4.53788497,120.7475692,5.64,'11111222,11111222,11111222' 
TABS,ioos:station:wmo:42045:1,2007-03-12T05:30:00Z,26.2168,-96.4998,4.0,4.146383967,123.6904097,5.15,'11111222,11111222,11111222' 
TABS,ioos:station:wmo:42045:1,2007-03-12T06:00:00Z,26.2168,-96.4998,4.0,4.278562843,118.781813,5.49,'11111222,11111222,11111222' 
TABS,ioos:station:wmo:42045:1,2007-03-12T06:30:00Z,26.2168,-96.4998,4.0,4.8953243,123.3333309,5.86,'11111222,11111222,11111222' 
TABS,ioos:station:wmo:42045:1,2007-03-12T07:00:00Z,26.2168,-96.4998,4.0,3.449478221,105.1243929,4.65,'11111222,11111222,11111222' 
TABS,ioos:station:wmo:42045:1,2007-03-12T07:30:00Z,26.2168,-96.4998,4.0,3.639299383,122.7734083,4.59,'11111222,11111222,11111222' 
TABS,ioos:station:wmo:42045:1,2007-03-12T08:00:00Z,26.2168,-96.4998,4.0,4.143356128,128.336194,4.99,'11111222,11111222,11111222' 
TABS,ioos:station:wmo:42045:1,2007-03-12T08:30:00Z,26.2168,-96.4998,4.0,5.093564567,130.3820047,6.28,'11111222,11111222,11111222' 
TABS,ioos:station:wmo:42045:1,2007-03-12T09:00:00Z,26.2168,-96.4998,4.0,6.01641089,132.4405677,7.59,'11111222,11111222,11111222' 
TABS,ioos:station:wmo:42045:1,2007-03-12T09:30:00Z,26.2168,-96.4998,4.0,5.216981886,146.4929823,6.54,'11111222,11111222,11111222' 
TABS,ioos:station:wmo:42045:1,2007-03-12T10:00:00Z,26.2168,-96.4998,4.0,4.762740808,144.1409692,5.95,'11111222,11111222,11111222' 
TABS,ioos:station:wmo:42045:1,2007-03-12T10:30:00Z,26.2168,-96.4998,4.0,4.08682028,148.916309,5.11,'11111222,11111222,11111222' 
TABS,ioos:station:wmo:42045:1,2007-03-12T11:00:00Z,26.2168,-96.4998,4.0,3.604996533,161.5653047,4.46,'11111222,11111222,11111222' 
TABS,ioos:station:wmo:42045:1,2007-03-12T11:30:00Z,26.2168,-96.4998,4.0,3.509558377,137.0786811,4.38,'11111222,11111222,11111222' 
TABS,ioos:station:wmo:42045:1,2007-03-12T12:00:00Z,26.2168,-96.4998,4.0,4.316167281,112.763191,5.82,'11111222,11111222,11111222' 
TABS,ioos:station:wmo:42045:1,2007-03-12T12:30:00Z,26.2168,-96.4998,4.0,5.293958821,125.3115518,6.28,'11111222,11111222,11111222' 
TABS,ioos:station:wmo:42045:1,2007-03-12T13:00:00Z,26.2168,-96.4998,4.0,5.946772234,134.9321877,7.12,'11111222,11111222,11111222' 
TABS,ioos:station:wmo:42045:1,2007-03-12T13:30:00Z,26.2168,-96.4998,4.0,5.591287866,128.1000037,6.82,'11111222,11111222,11111222' 
TABS,ioos:station:wmo:42045:1,2007-03-12T14:00:00Z,26.2168,-96.4998,4.0,4.712472812,123.0496964,5.73,'11111222,11111222,11111222' 
TABS,ioos:station:wmo:42045:1,2007-03-12T14:30:00Z,26.2168,-96.4998,4.0,3.91,118.0728422,4.89,'11111222,11111222,11111222' 
TABS,ioos:station:wmo:42045:1,2007-03-12T15:00:00Z,26.2168,-96.4998,4.0,5.357200762,107.826541,6.51,'11111222,11111222,11111222' 
TABS,ioos:station:wmo:42045:1,2007-03-12T15:30:00Z,26.2168,-96.4998,4.0,5.620266898,82.3308498,6.99,'11111222,11111222,11111222' 
TABS,ioos:station:wmo:42045:1,2007-03-12T16:00:00Z,26.2168,-96.4998,4.0,10.50242353,78.18681102,14.63,'11111222,11111222,11111222' 
TABS,ioos:station:wmo:42045:1,2007-03-12T16:30:00Z,26.2168,-96.4998,4.0,10.35687211,75.34615585,13.56,'11111222,11111222,11111222' 
TABS,ioos:station:wmo:42045:1,2007-03-12T17:00:00Z,26.2168,-96.4998,4.0,10.83824709,83.11063245,13.26,'11111222,11111222,11111222' 
TABS,ioos:station:wmo:42045:1,2007-03-12T17:30:00Z,26.2168,-96.4998,4.0,10.54082539,79.670448,13.17,'11111222,11111222,11111222' 
TABS,ioos:station:wmo:42045:1,2007-03-12T18:00:00Z,26.2168,-96.4998,4.0,9.945114378,82.953184,13.46,'11111222,11111222,11111222' 
TABS,ioos:station:wmo:42045:1,2007-03-12T18:30:00Z,26.2168,-96.4998,4.0,9.799515294,85.55155695,12.11,'11111222,11111222,11111222' 
TABS,ioos:station:wmo:42045:1,2007-03-12T19:00:00Z,26.2168,-96.4998,4.0,10.70794098,78.68967306,13.02,'11111222,11111222,11111222' 